Location: New Greens
(51.7702°N, 0.3379°W)
Time: 02:30:16
(UTC+00:00)

Envisat - Visible Passes

Search period start: 22 September 2020 00:00
Search period end: 02 October 2020 00:00
Orbit: 764 x 766 km, 98.1° (Epoch: 21 September)

Date Brightness Start Highest point End Pass type
(mag) Time Alt. Az. Time Alt. Az. Time Alt. Az.
23 Sep 6.2 04:44:51 10° NE 04:47:41 15° E 04:50:28 10° ESE visible
24 Sep 6.4 18:47:52 10° WSW 18:50:28 14° W 18:53:05 10° NW visible
25 Sep 5.8 05:09:23 10° NE 05:13:27 23° E 05:17:29 10° SE visible
26 Sep 6.5 04:34:17 10° ENE 04:36:08 12° E 04:37:59 10° ESE visible
27 Sep 6.2 18:35:40 10° SW 18:38:57 17° W 18:42:16 10° NW visible
28 Sep 6.0 04:58:20 10° NE 05:01:58 19° E 05:05:35 10° SE visible
29 Sep 6.8 19:04:10 10° W 19:04:48 10° W 19:05:27 10° WNW visible
30 Sep 5.3 05:23:11 10° NNE 05:27:40 30° E 05:32:08 10° SSE visible
30 Sep 6.0 18:23:39 10° SW 18:27:26 21° W 18:31:15 10° NW visible
01 Oct 6.2 04:47:23 10° NE 04:50:27 16° E 04:53:30 10° ESE visible
